Miscellaneous Local Product
Issued by NWS Hastings, NE

Home | Current Version | Previous Version | Graphics & Text | Print | Product List | Glossary On
Versions: 1 2 3 4 5 6 7 8 9 10 11 12 13 14 15 16 17 18 19 20 21 22 23 24 25 26 27 28 29 30 31 32 33 34 35 36 37 38 39 40 41 42 43 44 45 46 47 48 49 50
000
AXUS43 KGID 041402
MISGRI

GID CWA HOURLY WEATHER ROUNDUP
NATIONAL WEATHER SERVICE HASTINGS NE
800 AM CST WED MAR 04 2015

NOTE: "FAIR" INDICATES FEW OR NO CLOUDS BELOW 12,000 FEET WITH NO
SIGNIFICANT WEATHER AND/OR OBSTRUCTIONS TO VISIBILITY.

...SOUTH CENTRAL NEBRASKA...

CITY           SKY/WX    TMP DP  RH WIND       PRES   REMARKS
GRAND ISLAND   MOCLDY    13   8  81 W8        30.26R WCI   2
HASTINGS       PTCLDY    12   8  84 NW10      30.24R WCI  -1
KEARNEY        MOCLDY    12   9  85 NW7       30.25R WCI   2
ORD            CLEAR     11   2  67 NW5       30.23R WCI   3
YORK           MOSUNNY   12   9  85 NW7       30.26R WCI   2
AURORA         PTCLDY    13   8  79 W5        30.25R WCI   5
LEXINGTON      PTCLDY    13   9  84 NW10      30.24R WCI   0
HOLDREGE       CLOUDY    12   9  85 W5        30.24R WCI   4
HEBRON         MOSUNNY   12   9  87 CALM      30.29R

...NEBRASKA PANHANDLE...

CITY           SKY/WX    TMP DP  RH WIND       PRES   REMARKS
CHADRON        CLEAR     -4 -11  72 W9        30.18R WCI -20
ALLIANCE       PTCLDY    -1  -7  75 SW10      30.14R WCI -17
SCOTTSBLUFF    PTCLDY     7   2  80 NW5       30.15R WCI  -2
SIDNEY         CLOUDY     8   2  76 W9        30.14R WCI  -5

...WESTERN AND NORTH CENTRAL NEBRASKA...

CITY           SKY/WX    TMP DP  RH WIND       PRES   REMARKS
VALENTINE      CLEAR      3  -3  76 W10       30.20R WCI -12
AINSWORTH      CLEAR      9   2  73 NW8       30.19R WCI  -3
ONEILL         CLEAR     10   3  72 W8        30.21R WCI  -1
BROKEN BOW     PTCLDY    11   4  73 W9        30.21R WCI  -2
IMPERIAL         N/A     13   7  77 NW7       30.21R WCI   3
NORTH PLATTE   PTCLDY     9   5  84 NW3       30.22R
MCCOOK         CLOUDY    16  11  80 NW7       30.24R WCI   6

...EASTERN NEBRASKA...

CITY           SKY/WX    TMP DP  RH WIND       PRES   REMARKS
NORFOLK        PTCLDY    14   4  64 W12       30.22R WCI   0
SO SIOUX CITY  SUNNY     14   6  70 W7        30.25R WCI   4
TEKAMAH        SUNNY     14   7  73 W5        30.27R WCI   6
COLUMBUS       MOSUNNY   16   0  48 W7        30.26R WCI   6
ALBION         PTCLDY    15   3  59 NW6       30.24R WCI   6
OMAHA EPPLEY   MOSUNNY   18   8  65 N3        30.28R
OFFUTT AFB     MOSUNNY   16  10  77 W2        30.27R
MILLARD        MOSUNNY   17  10  72 CALM      30.27R
LINCOLN        MOSUNNY   17  13  84 CALM      30.28R
NEBRASKA CITY  SUNNY     14  10  85 NW6       30.28R WCI   5
BEATRICE       SUNNY      8   6  90 W3        30.28R
FALLS CITY     SUNNY     16  11  80 N3        30.29R

...NORTHERN KANSAS...

CITY           SKY/WX    TMP DP  RH WIND       PRES   REMARKS
GOODLAND       CLOUDY    15  11  83 N8        30.17R WCI   4
HILL CITY      CLOUDY    18  12  77 N9        30.27R WCI   7
NORTON         MOSUNNY   10   7  85 NW7       30.24R WCI   0
PHILLIPSBURG   CLOUDY    18  14  86 NW5       30.29R WCI  11
SMITH CENTER   PTCLDY    10   9  92 W3        30.30R
BELOIT         PTSUNNY   19  16  86 NW3       30.30R
HAYS           CLOUDY    18   7  62 N14       30.25S WCI   4
RUSSELL        CLOUDY    19  14  81 N13       30.24F WCI   6
CONCORDIA      MOSUNNY   18  14  84 NW5       30.29R WCI  11
SALINA         CLOUDY    22  12  65 NE13      30.30R WCI  10
TOPEKA         CLOUDY    21  12  68 N12       30.29R WCI   9



USA.gov is the U.S. government's official web portal to all federal, state and local government web resources and services.